Owatonna, Minnesota, United States (55060)
Lat: 44.08N, Lon: 93.23W
Wx Zone: MNZ085
Local Info
Past Weather Observations for Today

NOTE: This archive is for the closest National Weather Service station to Owatonna. Information may differ from the station used for current weather conditions.

Time Weather Temperature Dewpoint Humidity Pressure Winds Precip Visibility
20:54
Clear
41°F / 5°C 37°F / 3°C 87% 29.74 in
(1007 mb)
W 3.5 mph
(W 6 kph)
- 10SM
20:34
Clear
43°F / 6°C 39°F / 4°C 87% 29.74 in
(1007 mb)
WNW 4.6 mph
(WNW 7 kph)
- 10SM
20:15
Clear
43°F / 6°C 39°F / 4°C 87% 29.74 in
(1007 mb)
W 5.8 mph
(W 9 kph)
- 10SM
19:54
Partly Cloudy
45°F / 7°C 39°F / 4°C 81% 29.71 in
(1006 mb)
NW 6.9 mph
(NW 11 kph)
- 10SM
19:34
Mostly Cloudy
46°F / 8°C 39°F / 4°C 76% 29.71 in
(1006 mb)
NW 6.9 mph
(NW 11 kph)
- 10SM
19:14
Overcast
46°F / 8°C 43°F / 6°C 87% 29.71 in
(1006 mb)
WNW 5.8 mph
(WNW 9 kph)
- 10SM
18:54
Overcast
46°F / 8°C 43°F / 6°C 87% 29.71 in
(1006 mb)
WNW 4.6 mph
(WNW 7 kph)
- 10SM
18:35
Overcast
46°F / 8°C 43°F / 6°C 87% 29.71 in
(1006 mb)
NW 10.4 mph
(NW 17 kph)
- 10SM
18:14
Overcast
46°F / 8°C 41°F / 5°C 82% 29.71 in
(1006 mb)
NW 10.4 mph
(NW 17 kph)
- 10SM
17:54
Overcast
46°F / 8°C 41°F / 5°C 82% 29.68 in
(1005 mb)
NW 10.4 mph
(NW 17 kph)
- 10SM
17:35
Overcast
46°F / 8°C 41°F / 5°C 82% 29.71 in
(1006 mb)
NW 12.7 mph
(NW 20 kph)
- 10SM
17:15
Overcast
48°F / 9°C 43°F / 6°C 82% 29.71 in
(1006 mb)
WNW 11.5 mph
(WNW 19 kph)
- 10SM
16:55
Overcast
48°F / 9°C 43°F / 6°C 82% 29.68 in
(1005 mb)
WNW 9.2 mph
(WNW 15 kph)
- 10SM
16:34
Mostly Cloudy
46°F / 8°C 43°F / 6°C 87% 29.71 in
(1006 mb)
W 10.4 mph
(W 17 kph)
- 10SM
16:14
Mostly Cloudy
48°F / 9°C 43°F / 6°C 82% 29.68 in
(1005 mb)
W 11.5 mph
(W 19 kph)
- 10SM
15:54
Mostly Cloudy
46°F / 8°C 43°F / 6°C 87% 29.68 in
(1005 mb)
WNW 12.7 mph
(WNW 20 kph)
- 10SM
15:35
Partly Cloudy
46°F / 8°C 43°F / 6°C 87% 29.68 in
(1005 mb)
NW 11.5 mph
(NW 19 kph)
- 7SM
15:14
Mostly Cloudy
46°F / 8°C 43°F / 6°C 87% 29.68 in
(1005 mb)
W 9.2 mph
(W 15 kph)
- 7SM
14:55
Partly Cloudy
Light Rain
46°F / 8°C 43°F / 6°C 87% 29.68 in
(1005 mb)
W 5.8 mph
(W 9 kph)
- 7SM
14:34
Mostly Cloudy
Unknown Precip
45°F / 7°C 43°F / 6°C 93% 29.65 in
(1004 mb)
NW 3.5 mph
(NW 6 kph)
- 5SM
14:15
Mostly Cloudy
Fog And Mist
45°F / 7°C 43°F / 6°C 93% 29.68 in
(1005 mb)
W 3.5 mph
(W 6 kph)
- 5SM
13:54
Mostly Cloudy
Fog And Mist
45°F / 7°C 43°F / 6°C 93% 29.68 in
(1005 mb)
Calm - 5SM
13:34
Mostly Cloudy
Fog And Mist
45°F / 7°C 43°F / 6°C 93% 29.68 in
(1005 mb)
Calm - 5SM
13:14
Overcast
Fog And Mist
45°F / 7°C 43°F / 6°C 93% 29.68 in
(1005 mb)
Calm - 3SM
12:54
Overcast
Fog And Mist
43°F / 6°C 41°F / 5°C 93% 29.68 in
(1005 mb)
Calm 0.01 in
(0.25 mm)
2 1/2SM
12:34
Overcast
Drizzle
43°F / 6°C 41°F / 5°C 93% 29.68 in
(1005 mb)
Calm 0.01 in
(0.25 mm)
1 3/4SM
12:14
Overcast
Drizzle
43°F / 6°C 41°F / 5°C 93% 29.68 in
(1005 mb)
SE 3.5 mph
(SE 6 kph)
0.01 in
(0.25 mm)
2SM
11:55
Overcast
Drizzle
43°F / 6°C 41°F / 5°C 93% 29.68 in
(1005 mb)
SE 4.6 mph
(SE 7 kph)
- 1 3/4SM
11:34
Overcast
Drizzle
43°F / 6°C 39°F / 4°C 87% 29.68 in
(1005 mb)
SE 4.6 mph
(SE 7 kph)
- 1 3/4SM
11:14
Overcast
Drizzle
43°F / 6°C 39°F / 4°C 87% 29.71 in
(1006 mb)
SE 8.1 mph
(SE 13 kph)
- 2SM
10:55
Overcast
Unknown Precip
43°F / 6°C 39°F / 4°C 87% 29.71 in
(1006 mb)
SE 6.9 mph
(SE 11 kph)
- 2SM
10:34
Overcast
Drizzle
43°F / 6°C 39°F / 4°C 87% 29.71 in
(1006 mb)
SE 9.2 mph
(SE 15 kph)
- 4SM
10:15
Mostly Cloudy
Drizzle
43°F / 6°C 39°F / 4°C 87% 29.71 in
(1006 mb)
ESE 10.4 mph
(ESE 17 kph)
- 7SM
09:54
Overcast
Light Rain
43°F / 6°C 39°F / 4°C 87% 29.71 in
(1006 mb)
SE 12.7 mph
(SE 20 kph)
0.01 in
(0.25 mm)
7SM
09:34
Overcast
Light Rain
43°F / 6°C 37°F / 3°C 81% 29.68 in
(1005 mb)
SE 15 mph
(SE 24 kph)
0.01 in
(0.25 mm)
4SM
09:15
Overcast
Rain
43°F / 6°C 37°F / 3°C 81% 29.68 in
(1005 mb)
SE 17.3 mph
(SE 28 kph)
0.01 in
(0.25 mm)
3SM
08:54
Overcast
Light Rain
43°F / 6°C 37°F / 3°C 81% 29.71 in
(1006 mb)
SE 18.4 mph
(SE 30 kph)
0.02 in
(0.51 mm)
7SM
08:36
Overcast
Light Rain
43°F / 6°C 37°F / 3°C 81% 29.71 in
(1006 mb)
SE 17.3 mph
(SE 28 kph)
0.02 in
(0.51 mm)
10SM
08:15
Overcast
Heavy Rain
43°F / 6°C 37°F / 3°C 81% 20.44 in
(692 mb)
SE 21.9 mph
(SE 35 kph)
0.02 in
(0.51 mm)
7SM
07:54
Overcast
Light Rain
43°F / 6°C 39°F / 4°C 87% 29.71 in
(1006 mb)
SE 23 mph
(SE 37 kph)
- 7SM
07:34
Overcast
Light Rain
43°F / 6°C 39°F / 4°C 87% 29.71 in
(1006 mb)
SE 19.6 mph
(SE 32 kph)
- 10SM
07:15
Overcast
Light Rain
43°F / 6°C 39°F / 4°C 87% 29.74 in
(1007 mb)
SE 16.1 mph
(SE 26 kph)
- 7SM
06:55
Overcast
43°F / 6°C 39°F / 4°C 87% 29.74 in
(1007 mb)
SE 19.6 mph
(SE 32 kph)
- 7SM
06:34
Overcast
Drizzle
41°F / 5°C 37°F / 3°C 87% 29.74 in
(1007 mb)
SE 19.6 mph
(SE 32 kph)
- 7SM
06:15
Overcast
Drizzle
41°F / 5°C 37°F / 3°C 87% 29.74 in
(1007 mb)
SE 21.9 mph
(SE 35 kph)
- 7SM
05:55
Overcast
41°F / 5°C 37°F / 3°C 87% 29.74 in
(1007 mb)
SE 21.9 mph
(SE 35 kph)
- 10SM
05:35
Overcast
Light Rain
43°F / 6°C 37°F / 3°C 81% 29.74 in
(1007 mb)
SE 20.7 mph
(SE 33 kph)
- 7SM
05:14
Overcast
Thunder Storms
43°F / 6°C 37°F / 3°C 81% 29.77 in
(1008 mb)
SE 21.9 mph
(SE 35 kph)
- 7SM
04:54
Overcast
43°F / 6°C 39°F / 4°C 87% 29.77 in
(1008 mb)
SE 20.7 mph
(SE 33 kph)
0.08 in
(2.03 mm)
7SM
04:34
Overcast
43°F / 6°C 39°F / 4°C 87% 29.77 in
(1008 mb)
SE 21.9 mph
(SE 35 kph)
0.07 in
(1.78 mm)
5SM
04:14
Overcast
Heavy Rain
43°F / 6°C 39°F / 4°C 87% 29.77 in
(1008 mb)
SE 20.7 mph
(SE 33 kph)
0.05 in
(1.27 mm)
5SM
03:54
Overcast
43°F / 6°C 39°F / 4°C 87% 29.77 in
(1008 mb)
SE 19.6 mph
(SE 32 kph)
0.17 in
(4.32 mm)
4SM
03:35
Overcast
Heavy Rain
43°F / 6°C 39°F / 4°C 87% 29.8 in
(1009 mb)
SE 17.3 mph
(SE 28 kph)
0.09 in
(2.29 mm)
5SM
03:14
Overcast
Rain
43°F / 6°C 39°F / 4°C 87% 29.8 in
(1009 mb)
SE 19.6 mph
(SE 32 kph)
0.03 in
(0.76 mm)
7SM
02:54
Overcast
43°F / 6°C 39°F / 4°C 87% 29.8 in
(1009 mb)
SE 18.4 mph
(SE 30 kph)
0.03 in
(0.76 mm)
7SM
02:34
Overcast
Light Rain
43°F / 6°C 39°F / 4°C 87% 29.8 in
(1009 mb)
SE 21.9 mph
(SE 35 kph)
0.01 in
(0.25 mm)
7SM
02:14
Overcast
Light Rain
43°F / 6°C 39°F / 4°C 87% 29.8 in
(1009 mb)
ESE 25.3 mph
(ESE 41 kph)
0.01 in
(0.25 mm)
7SM
01:55
Overcast
Rain
43°F / 6°C 39°F / 4°C 87% 29.83 in
(1010 mb)
SE 20.7 mph
(SE 33 kph)
0.02 in
(0.51 mm)
7SM
01:35
Overcast
Light Rain
45°F / 7°C 39°F / 4°C 81% 29.83 in
(1010 mb)
SE 23 mph
(SE 37 kph)
- 7SM
01:14
Overcast
Rain
45°F / 7°C 37°F / 3°C 76% 29.83 in
(1010 mb)
SE 19.6 mph
(SE 32 kph)
- 7SM
00:54
Overcast
Rain
45°F / 7°C 37°F / 3°C 76% 29.86 in
(1011 mb)
SE 18.4 mph
(SE 30 kph)
- 7SM
00:35
Overcast
Rain
45°F / 7°C 37°F / 3°C 76% 29.89 in
(1012 mb)
SE 16.1 mph
(SE 26 kph)
- 10SM
00:14
Overcast
Drizzle
45°F / 7°C 37°F / 3°C 76% 29.89 in
(1012 mb)
SE 18.4 mph
(SE 30 kph)
- 10SM
Time Weather Temperature Dewpoint Humidity Pressure Winds Precip Visibility


Weather for websites

WeatherForYou.com, LLC is not responsible for any damages or problems caused by this service. Current weather conditions are obtained from the closest station including government and personal stations which may have varying degrees of accuracy. Weather forecasts are derived from the NOAA NDFD. Like all things, this site belongs to Jesus Christ... He just trusts me to maintain it. If you have any questions or comments email webmaster@weatherforyou.com

Copyright © 2014, WeatherForYou.com LLC. All rights reserved.